Weather reports worldwide

Advertisment
Brignogan, France (7107): temperature & dewpoint: 12.01.2018 07:00:00 - 18.01.2018 07:00:00 (CET)Brignogan, France (7107): wind speed & gusts: 12.01.2018 07:00:00 - 18.01.2018 07:00:00 (CET)Brignogan, France (7107): wind direction: 12.01.2018 07:00:00 - 18.01.2018 07:00:00 (CET)Brignogan, France (7107): reduced air pressure: 12.01.2018 07:00:00 - 18.01.2018 07:00:00 (CET)Brignogan, France (7107): visibility: 12.01.2018 07:00:00 - 18.01.2018 07:00:00 (CET)Brignogan, France (7107): precipitation: 12.01.2018 07:00:00 - 18.01.2018 07:00:00 (CET)
Date & Time tt [°C] td [°C] ff [km/h] ff [kn] fx [km/h] fx [kn] dd ppp [hPa] vv [km] rr [mm]
18.01.2018 07:00:00 - - - - - - - - - -
18.01.2018 06:00:00 11,6 10,5 55 30 84 45 WSW 1009,2 - 0,2
18.01.2018 05:00:00 11,7 10,4 58 31 93 50 WSW 1009,3 - 0,0
18.01.2018 04:00:00 11,4 10,0 56 31 98 53 WSW 1009,8 - 0,2
18.01.2018 03:00:00 11,5 9,6 55 30 96 52 WSW 1010,2 - 0,0
18.01.2018 02:00:00 11,1 9,4 55 30 98 53 WSW 1010,9 - 0,2
18.01.2018 01:00:00 11,4 8,8 55 30 89 48 WSW 1011,6 - 0,0
18.01.2018 00:00:00 10,5 8,9 49 26 90 49 WSW 1012,7 - 0,2
17.01.2018 23:00:00 10,4 8,3 53 29 98 53 WSW 1013,6 - 0,0
17.01.2018 22:00:00 9,7 7,8 40 22 68 37 WSW 1014,9 - 0,2
17.01.2018 21:00:00 10,2 6,5 41 22 68 37 WSW 1015,7 - 0,0
17.01.2018 20:00:00 9,5 6,2 27 14 61 33 WSW 1016,7 - 0,2
17.01.2018 19:00:00 9,9 5,3 41 22 61 33 W 1017,3 10 0,0
17.01.2018 18:00:00 9,5 5,1 45 24 66 36 W 1017,5 - 0,0
17.01.2018 17:00:00 9,8 4,6 42 23 65 35 W 1018,6 - 0,0
17.01.2018 16:00:00 10,2 5,4 39 21 64 34 W 1018,6 10 0,0
17.01.2018 15:00:00 9,8 5,4 37 20 63 34 W 1018,9 - 0,2
17.01.2018 14:00:00 9,9 4,3 41 22 66 36 W 1019,2 - 0,0
17.01.2018 13:00:00 9,7 4,1 41 22 74 40 W 1019,5 8 0,0
17.01.2018 12:00:00 9,5 4,9 36 19 92 50 WNW 1019,4 - 0,4
17.01.2018 11:00:00 9,2 3,0 48 26 84 45 W 1018,8 - 0,0
17.01.2018 10:00:00 8,0 4,0 45 24 70 38 WNW 1018,1 5 0,2
17.01.2018 09:00:00 8,3 3,7 63 34 91 49 WNW 1017,1 - 0,0
17.01.2018 08:00:00 9,2 3,0 60 33 98 53 WNW 1015,9 - 0,2
17.01.2018 07:00:00 8,9 2,9 67 36 94 51 WNW 1014,9 8 0,0
17.01.2018 06:00:00 7,4 4,0 61 33 111 60 WNW 1014,1 - 0,2
17.01.2018 05:00:00 8,9 3,3 63 34 144 78 WNW 1012,7 - 0,0
17.01.2018 04:00:00 8,8 2,8 77 41 106 57 WNW 1011,8 - 0,0
17.01.2018 03:00:00 8,5 2,7 75 41 119 64 W 1010,8 - 0,0
17.01.2018 02:00:00 8,6 1,5 73 39 107 58 WNW 1009,6 - 0,2
17.01.2018 01:00:00 8,2 1,8 83 45 117 63 WNW 1009,7 - 0,0
17.01.2018 00:00:00 7,4 3,4 66 35 119 64 WNW 1008,9 - 0,6
16.01.2018 23:00:00 7,6 3,3 77 42 129 70 WNW 1008,0 - 0,6
16.01.2018 22:00:00 6,6 3,2 69 38 131 71 W 1006,7 - 1,4
16.01.2018 21:00:00 9,1 4,5 65 35 106 57 W 1006,5 - 0,2
16.01.2018 20:00:00 8,4 4,6 73 40 106 57 W 1006,2 - 0,2
16.01.2018 19:00:00 9,3 4,9 69 38 109 59 W 1005,6 10 0,8
16.01.2018 18:00:00 9,4 5,8 70 38 99 53 W 1005,8 - 0,6
16.01.2018 17:00:00 10,0 5,0 53 29 120 65 W 1006,1 - 0,4
16.01.2018 16:00:00 9,8 4,4 57 31 109 59 W 1006,5 8 -
16.01.2018 15:00:00 10,7 4,6 51 28 94 51 W 1006,3 - 0,0
16.01.2018 14:00:00 10,7 5,4 51 27 87 47 W 1007,0 - 0,0
16.01.2018 13:00:00 10,7 5,2 49 26 89 48 W 1007,9 8 0,0
16.01.2018 12:00:00 11,5 5,8 48 26 89 48 W 1008,5 - 0,0
16.01.2018 11:00:00 11,1 4,3 56 31 93 50 W 1008,0 - 0,0
16.01.2018 10:00:00 11,0 5,1 58 32 94 51 W 1007,7 12 0,0
16.01.2018 09:00:00 10,7 6,1 59 32 91 49 W 1006,6 - 0,2
16.01.2018 08:00:00 10,7 6,8 56 30 96 52 W 1006,5 - 0,0
16.01.2018 07:00:00 10,1 7,2 70 38 98 53 W 1006,0 12 0,4
16.01.2018 06:00:00 11,4 7,5 55 30 94 51 W 1006,0 - 0,0
16.01.2018 05:00:00 11,5 8,0 54 29 95 51 W 1005,0 - 0,0
16.01.2018 04:00:00 11,1 8,5 40 21 85 46 WSW 1005,7 - 0,0
16.01.2018 03:00:00 10,2 8,6 50 27 95 51 W 1005,7 - 1,4
16.01.2018 02:00:00 10,7 8,8 48 26 80 43 W 1005,9 - 0,2
16.01.2018 01:00:00 10,7 8,6 42 23 66 35 W 1006,3 - 0,0
16.01.2018 00:00:00 11,2 7,5 44 24 79 43 W 1006,3 - 0,2
15.01.2018 23:00:00 10,8 8,6 56 30 84 45 W 1005,9 - 0,2
15.01.2018 22:00:00 10,7 8,6 40 22 74 40 W 1005,9 - 0,2
15.01.2018 21:00:00 11,3 8,2 49 27 80 43 W 1006,1 - 0,0
15.01.2018 20:00:00 10,6 8,7 64 35 82 44 W 1005,9 - 0,2
15.01.2018 19:00:00 11,0 8,9 41 22 69 38 W 1005,6 4,0 0,0
15.01.2018 18:00:00 11,4 8,6 51 28 83 45 W 1005,8 - 0,0
15.01.2018 17:00:00 11,5 8,9 54 29 75 40 W 1005,3 - 0,0
15.01.2018 16:00:00 11,5 9,4 51 28 76 41 W 1005,6 10 0,2
15.01.2018 15:00:00 11,8 9,0 46 25 66 35 W 1005,5 - 0,0
15.01.2018 14:00:00 11,6 9,0 42 23 85 46 W 1005,2 - 0,0
15.01.2018 13:00:00 11,8 10,4 55 30 81 44 WSW 1005,7 8 0,2
15.01.2018 12:00:00 11,7 10,8 45 24 76 41 W 1005,8 - 0,2
15.01.2018 11:00:00 11,8 10,9 48 26 78 42 WSW 1006,0 - 1,7
15.01.2018 10:00:00 11,7 10,8 40 22 70 38 WSW 1006,5 4,0 2,2
15.01.2018 09:00:00 10,9 9,8 33 18 66 35 SW 1007,2 - 1,0
15.01.2018 08:00:00 10,5 9,4 31 17 62 33 SSW 1008,6 - 0,8
15.01.2018 07:00:00 9,9 8,8 30 16 61 33 SSW 1009,7 4,0 0,8
15.01.2018 06:00:00 9,7 8,1 31 17 63 34 SSW 1011,0 - 0,4
15.01.2018 05:00:00 10,1 7,5 28 15 45 24 SW 1012,3 - 0,0
15.01.2018 04:00:00 9,7 6,6 21 12 43 23 SSW 1013,7 - 0,0
15.01.2018 03:00:00 9,2 7,1 20 11 33 18 SW 1014,9 - 0,0
15.01.2018 02:00:00 8,4 7,0 14 7 29 16 SSW 1016,2 - 0,0
15.01.2018 01:00:00 7,3 5,8 16 9 34 18 S 1017,2 - 0,0
15.01.2018 00:00:00 7,0 5,3 23 12 36 20 S 1017,5 - 0,0
14.01.2018 23:00:00 6,4 5,0 22 12 33 18 S 1018,1 - 0,0
14.01.2018 22:00:00 5,1 3,6 18 10 27 15 S 1018,6 - 0,0
14.01.2018 21:00:00 5,3 3,8 14 8 21 11 S 1018,7 - 0,0
14.01.2018 20:00:00 5,8 4,1 13 7 19 10 S 1018,5 - 0,0
14.01.2018 19:00:00 7,2 4,5 5 3 11 6 S 1018,3 20 0,0
14.01.2018 18:00:00 7,4 4,4 9 5 13 7 S 1018,0 - 0,0
14.01.2018 17:00:00 8,1 4,7 6 3 8 4 SSE 1018,2 - 0,0
14.01.2018 16:00:00 8,6 4,8 1 1 8 5 E 1018,1 12 0,0
14.01.2018 15:00:00 8,8 4,8 4 2 8 5 ENE 1017,7 - 0,0
14.01.2018 14:00:00 9,2 6,3 3 1 8 4 SE 1017,7 - 0,0
14.01.2018 13:00:00 7,8 5,9 5 3 10 6 S 1018,0 4,0 0,0
14.01.2018 12:00:00 7,0 5,5 7 4 15 8 SSW 1018,1 - 0,0
14.01.2018 11:00:00 4,5 3,3 13 7 16 9 S 1017,7 - 0,0
14.01.2018 10:00:00 3,9 2,9 7 4 12 6 SSW 1017,4 15 0,0
14.01.2018 09:00:00 3,0 1,8 9 5 13 7 S 1016,7 - 0,0
14.01.2018 08:00:00 3,4 2,2 7 4 11 6 S 1016,2 - 0,0
14.01.2018 07:00:00 4,0 2,7 7 4 13 7 SE 1015,9 25 0,0
14.01.2018 06:00:00 5,1 3,8 8 4 14 8 SE 1015,7 - 0,0
14.01.2018 05:00:00 5,5 4,1 9 5 13 7 ENE 1015,4 - 0,0
14.01.2018 04:00:00 5,0 3,7 8 5 13 7 SE 1015,2 - 0,0
14.01.2018 03:00:00 5,0 3,3 3 1 5 3 SSE 1014,8 - 0,0
14.01.2018 02:00:00 5,2 3,7 3 1 8 4 SE 1014,9 - 0,0
14.01.2018 01:00:00 5,4 4,0 3 2 12 6 S 1014,8 - 0,0
14.01.2018 00:00:00 5,5 4,0 5 3 17 9 SSE 1014,5 - 0,0
13.01.2018 23:00:00 5,6 4,2 8 4 18 10 SE 1014,3 - 0,0
13.01.2018 22:00:00 5,7 4,3 9 5 19 11 E 1014,1 - 0,2
13.01.2018 21:00:00 5,8 4,4 11 6 21 11 SE 1013,7 - 0,6
13.01.2018 20:00:00 6,0 4,6 6 3 38 20 ESE 1013,2 - 0,0
13.01.2018 19:00:00 6,2 4,7 13 7 33 18 ESE 1012,9 8 0,4
13.01.2018 18:00:00 6,4 4,9 15 8 31 17 ESE 1013,0 - 0,4
13.01.2018 17:00:00 6,9 5,4 14 8 28 15 ESE 1012,6 - 1,2
13.01.2018 16:00:00 7,3 5,4 13 7 26 14 ESE 1012,4 10 0,8
13.01.2018 15:00:00 7,6 5,9 11 6 32 18 SE 1012,3 - 0,4
13.01.2018 14:00:00 7,7 5,7 18 10 44 24 SE 1012,5 - 0,0
13.01.2018 13:00:00 7,7 5,3 26 14 45 24 SSE 1013,0 12 0,0
13.01.2018 12:00:00 7,5 5,1 26 14 47 25 SSE 1013,4 - 0,0
13.01.2018 11:00:00 7,4 5,2 21 11 41 22 SE 1013,3 - 0,0
13.01.2018 10:00:00 7,2 5,3 26 14 44 24 SSE 1013,3 12 -
13.01.2018 09:00:00 7,3 5,6 29 16 55 30 SSE 1013,5 - 0,2
13.01.2018 08:00:00 7,0 5,5 35 19 53 29 SSE 1013,3 - 1,2
13.01.2018 07:00:00 7,0 5,1 25 14 44 24 SE 1013,6 12 0,6
13.01.2018 06:00:00 6,9 5,0 21 12 42 23 SE 1013,7 - 0,8
13.01.2018 05:00:00 7,1 4,2 22 12 43 23 SE 1014,5 - 0,0
13.01.2018 04:00:00 7,3 4,3 24 13 44 24 SSE 1015,4 - 0,0
13.01.2018 03:00:00 7,5 4,4 18 10 37 20 SE 1015,8 - 0,0
13.01.2018 02:00:00 7,0 4,1 20 11 41 22 SE 1016,6 - 0,0
13.01.2018 01:00:00 6,7 4,2 21 11 37 20 SE 1017,6 - 0,0
13.01.2018 00:00:00 6,3 3,8 19 10 45 24 SE 1018,1 - 0,0
12.01.2018 23:00:00 6,0 3,5 24 13 53 29 SE 1018,3 - 0,0
12.01.2018 22:00:00 6,1 3,6 19 10 35 19 SE 1019,4 - 0,0
12.01.2018 21:00:00 6,2 3,7 16 9 32 17 SE 1020,2 - 0,0
12.01.2018 20:00:00 6,2 3,9 20 11 40 22 SE 1020,3 - 0,0
12.01.2018 19:00:00 6,4 4,1 19 10 36 19 SE 1020,6 12 0,0
12.01.2018 18:00:00 6,7 4,4 18 10 31 17 SE 1021,2 - 0,0
12.01.2018 17:00:00 7,2 4,5 23 12 38 20 SSE 1021,7 - 0,0
12.01.2018 16:00:00 7,7 5,0 18 10 34 18 SSE 1022,1 15 0,0
12.01.2018 15:00:00 7,5 4,6 22 12 36 19 SSE 1022,6 - 0,0
12.01.2018 14:00:00 8,9 4,7 17 9 29 16 SSE 1023,2 - 0,0
12.01.2018 13:00:00 7,7 4,1 16 9 31 17 SSE 1024,1 15 0,0
12.01.2018 12:00:00 6,4 3,5 19 11 30 16 SSE 1024,8 - 0,0
12.01.2018 11:00:00 5,2 2,5 10 5 19 10 SE 1025,7 - 0,0
12.01.2018 10:00:00 3,6 2,0 15 8 21 12 S 1025,5 12 0,0
12.01.2018 09:00:00 2,7 1,5 17 9 19 11 S 1025,4 - 0,0
12.01.2018 08:00:00 2,6 1,3 16 9 19 11 S 1025,5 - 0,0
12.01.2018 07:00:00 3,3 2,0 16 8 18 10 S 1025,1 22 0,0

tt = temperature
td = dewpoint
ff = wind speed
fx = gusts
dd = wind direction
ppp = reduced air pressure
vv = visibility
rr = precipitation

Next stations